EW9318 Weather Reports


Display with metric or nautical units.
time (UTC)temp
F
wind
direction
speed
MPH
gust
MPH
rain 1hr
in
rain 24hr
in
rain mn
in
humidity
%
barometer
mb
20260509181535 57 237 8.0 13.0 0.00 0.00 0.00 66 1002.5
20260509181016 57 254 7.0 13.0 0.00 0.00 0.00 67 1002.7
20260509180515 57 251 9.0 15.0 0.00 0.00 0.00 67 1002.7
20260509180015 57 255 8.0 15.0 0.00 0.00 0.00 66 1002.7
20260509175515 57 258 6.0 14.0 0.00 0.00 0.00 65 1002.4
20260509175016 57 255 8.0 17.0 0.00 0.00 0.00 66 1002.3
20260509174537 57 268 8.0 17.0 0.00 0.00 0.00 64 1002.7
20260509174018 57 290 9.0 15.0 0.00 0.00 0.00 63 1002.6
20260509173517 57 291 7.0 15.0 0.00 0.00 0.00 63 1002.7
20260509173037 57 297 7.0 12.0 0.00 0.00 0.00 63 1002.4
20260509172517 57 306 4.0 13.0 0.00 0.00 0.00 63 1002.3
20260509172017 57 303 8.0 13.0 0.00 0.00 0.00 65 1002.4
20260509171517 57 300 7.0 11.0 0.00 0.00 0.00 64 1002.3
20260509171017 57 308 7.0 14.0 0.00 0.00 0.00 64 1002.3
20260509170517 58 301 9.0 14.0 0.00 0.00 0.00 67 1002.5
20260509170018 58 300 8.0 16.0 0.00 0.00 0.00 67 1002.7
20260509165517 58 271 10.0 17.0 0.00 0.00 0.00 68 1002.7
20260509165017 58 291 11.0 24.0 0.00 0.00 0.00 68 1002.6
20260509164539 58 268 15.0 24.0 0.00 0.00 0.00 67 1002.6
20260509164017 58 267 12.0 20.0 0.00 0.00 0.00 68 1002.6
20260509163536 58 279 10.0 20.0 0.00 0.00 0.00 68 1002.4
20260509163017 58 279 13.0 20.0 0.00 0.00 0.00 67 1002.4
20260509162517 58 273 12.0 20.0 0.00 0.00 0.00 67 1002.3
20260509162018 59 275 13.0 20.0 0.00 0.00 0.00 65 1002.2
20260509161619 59 277 11.0 16.0 0.00 0.00 0.00 65 1002.0
20260509161017 59 260 11.0 18.0 0.00 0.00 0.00 66 1002.0
20260509160517 59 257 11.0 23.0 0.00 0.00 0.00 66 1002.0
20260509160018 59 254 15.0 23.0 0.00 0.00 0.00 66 1001.8
20260509155517 60 252 14.0 24.0 0.00 0.00 0.00 65 1001.6
20260509155017 60 259 15.0 24.0 0.00 0.00 0.00 65 1001.6
20260509154517 60 276 13.0 22.0 0.00 0.00 0.00 63 1001.5
20260509154017 60 267 11.0 23.0 0.00 0.00 0.00 63 1001.5
20260509153537 60 246 14.0 23.0 0.00 0.00 0.00 64 1001.2
20260509153017 61 258 13.0 21.0 0.00 0.00 0.00 63 1001.2
20260509152518 61 258 12.0 20.0 0.00 0.00 0.00 65 1001.0
20260509152017 61 260 11.0 21.0 0.00 0.00 0.00 63 1001.0
20260509151517 61 267 12.0 23.0 0.00 0.00 0.00 65 1001.0
20260509151017 60 266 14.0 23.0 0.00 0.00 0.00 63 1001.0
20260509150537 61 269 14.0 22.0 0.00 0.00 0.00 66 1001.2
20260509150038 60 257 15.0 29.0 0.00 0.00 0.00 66 1001.1
20260509145517 60 257 18.0 29.0 0.00 0.00 0.00 65 1001.1
20260509145018 60 255 16.0 24.0 0.00 0.00 0.00 66 1000.9
20260509144518 60 239 14.0 23.0 0.00 0.00 0.00 65 1000.9
20260509144017 61 230 14.0 23.0 0.00 0.00 0.00 64 1000.8
20260509143516 61 237 12.0 23.0 0.00 0.00 0.00 65 1000.8
20260509143017 61 239 13.0 23.0 0.00 0.00 0.00 65 1001.0
20260509142517 61 261 12.0 25.0 0.00 0.00 0.00 65 1001.0
20260509142017 60 242 13.0 25.0 0.00 0.00 0.00 66 1001.1
20260509141537 60 254 15.0 21.0 0.00 0.00 0.00 66 1001.0
20260509141017 60 254 14.0 21.0 0.00 0.00 0.00 68 1001.0
20260509140536 59 233 12.0 22.0 0.00 0.00 0.00 67 1001.0
20260509140016 59 232 13.0 22.0 0.00 0.00 0.00 67 1001.0
20260509135516 59 244 14.0 22.0 0.00 0.00 0.00 68 1001.0
20260509135016 59 247 15.0 24.0 0.00 0.00 0.00 67 1001.1
20260509134516 59 241 14.0 24.0 0.00 0.00 0.00 67 1001.0
20260509134018 58 236 11.0 18.0 0.00 0.00 0.00 68 1001.0
20260509133538 58 235 10.0 18.0 0.00 0.00 0.00 70 1000.9
20260509133016 57 224 8.0 18.0 0.00 0.00 0.00 73 1001.0
20260509132516 57 234 8.0 16.0 0.00 0.00 0.00 74 1001.1
20260509132017 56 224 9.0 16.0 0.00 0.00 0.00 75 1001.1
20260509131518 56 211 8.0 15.0 0.00 0.00 0.00 75 1001.3
20260509131016 55 244 9.0 16.0 0.00 0.00 0.00 76 1001.5
20260509130517 55 235 10.0 16.0 0.00 0.00 0.00 76 1001.4
20260509130016 55 232 11.0 21.0 0.00 0.00 0.00 78 1001.2
20260509125556 55 211 9.0 21.0 0.00 0.00 0.00 80 1001.1
20260509125016 55 211 9.0 16.0 0.00 0.00 0.00 81 1001.1
20260509124557 54 190 7.0 17.0 0.00 0.00 0.00 82 1001.2
20260509124016 54 210 9.0 17.0 0.00 0.00 0.00 82 1001.1
20260509123516 54 189 8.0 16.0 0.00 0.00 0.00 83 1001.4
20260509123036 53 178 7.0 17.0 0.00 0.00 0.00 84 1001.4
20260509122516 53 184 8.0 17.0 0.00 0.00 0.00 85 1001.5
20260509122017 52 192 7.0 14.0 0.00 0.00 0.00 86 1001.6
20260509121516 52 204 7.0 14.0 0.00 0.00 0.00 87 1001.6
20260509121037 52 195 6.0 14.0 0.00 0.00 0.00 88 1001.7
20260509120516 51 179 6.0 13.0 0.00 0.00 0.00 88 1001.7
20260509120017 51 187 6.0 13.0 0.00 0.00 0.00 88 1001.7
20260509115517 51 194 6.0 13.0 0.00 0.00 0.00 88 1001.7
20260509115056 51 189 6.0 12.0 0.00 0.00 0.00 89 1001.7
20260509114516 51 185 6.0 12.0 0.00 0.00 0.00 89 1001.8
20260509114016 50 186 4.0 9.0 0.00 0.00 0.00 89 1001.8
20260509113516 50 189 4.0 9.0 0.00 0.00 0.00 89 1001.9
20260509113016 50 196 4.0 10.0 0.00 0.00 0.00 89 1002.0
20260509112516 50 201 4.0 13.0 0.00 0.00 0.00 89 1002.0
20260509112017 50 191 6.0 18.0 0.00 0.00 0.00 89 1001.9
20260509111516 50 197 7.0 18.0 0.00 0.00 0.00 89 1002.1
20260509111036 50 203 8.0 17.0 0.00 0.00 0.00 90 1002.0
20260509110516 50 183 6.0 17.0 0.00 0.00 0.00 90 1001.9
20260509110016 50 200 5.0 12.0 0.00 0.00 0.00 90 1001.8
20260509105516 49 190 5.0 13.0 0.00 0.00 0.00 90 1001.9
20260509105017 49 179 6.0 13.0 0.00 0.00 0.00 90 1001.9
20260509104517 49 174 5.0 12.0 0.00 0.00 0.00 90 1001.8
20260509104016 49 168 5.0 12.0 0.00 0.00 0.00 90 1001.9
20260509103516 49 176 5.0 11.0 0.00 0.00 0.00 90 1002.0
20260509103017 49 181 5.0 11.0 0.00 0.00 0.00 90 1002.1
20260509102536 49 193 4.0 8.0 0.00 0.00 0.00 90 1002.1
20260509102016 49 181 4.0 8.0 0.00 0.00 0.00 90 1002.2
20260509101537 49 184 4.0 9.0 0.00 0.00 0.00 90 1002.2
20260509101016 49 173 4.0 9.0 0.00 0.00 0.00 90 1002.1
20260509100516 49 189 3.0 10.0 0.00 0.00 0.00 90 1002.2
20260509100017 49 182 4.0 10.0 0.00 0.00 0.00 90 1002.3
20260509095517 49 179 5.0 9.0 0.00 0.00 0.00 90 1002.3
20260509095017 49 176 4.0 8.0 0.00 0.00 0.00 90 1002.3
20260509094516 49 177 4.0 7.0 0.00 0.00 0.00 90 1002.4
20260509094016 49 174 3.0 7.0 0.00 0.00 0.00 89 1002.5
20260509093517 49 178 3.0 6.0 0.00 0.00 0.00 89 1002.5
20260509093016 49 192 1.0 6.0 0.00 0.00 0.00 89 1002.5
20260509092516 49 172 2.0 6.0 0.00 0.00 0.00 89 1002.5
20260509092036 49 166 2.0 9.0 0.00 0.00 0.00 89 1002.5
20260509091516 49 168 4.0 9.0 0.00 0.00 0.00 89 1002.4
20260509091016 49 165 3.0 7.0 0.00 0.00 0.00 89 1002.6
20260509090517 49 172 2.0 7.0 0.00 0.00 0.00 89 1002.6
20260509090017 49 173 3.0 6.0 0.00 0.00 0.00 89 1002.7
20260509085556 49 159 2.0 7.0 0.00 0.00 0.00 89 1002.6
20260509085016 49 166 3.0 7.0 0.00 0.00 0.00 89 1002.7
20260509084516 49 171 3.0 9.0 0.00 0.00 0.00 89 1002.7
20260509084016 49 173 3.0 9.0 0.00 0.00 0.00 89 1002.8
20260509083516 48 161 3.0 10.0 0.00 0.00 0.00 89 1002.8
20260509083016 48 157 3.0 10.0 0.00 0.00 0.00 89 1002.8
20260509082516 48 166 2.0 7.0 0.00 0.00 0.00 89 1002.8
20260509082016 48 171 2.0 6.0 0.00 0.00 0.00 88 1002.9
20260509081516 48 161 2.0 6.0 0.00 0.00 0.00 88 1002.9
20260509081016 48 154 2.0 8.0 0.00 0.00 0.00 88 1003.0
20260509080516 48 153 2.0 8.0 0.00 0.00 0.00 88 1003.1
20260509080016 48 150 2.0 5.0 0.00 0.00 0.00 88 1003.1
20260509075516 48 159 2.0 6.0 0.00 0.00 0.00 88 1003.2
20260509075016 48 160 2.0 7.0 0.00 0.00 0.00 88 1003.2
20260509074517 48 168 2.0 7.0 0.00 0.00 0.00 88 1003.3
20260509074016 48 149 3.0 6.0 0.00 0.00 0.00 88 1003.3
20260509073516 47 143 2.0 6.0 0.00 0.00 0.00 87 1003.3
20260509073016 47 155 2.0 6.0 0.00 0.00 0.00 86 1003.4
20260509072516 47 168 1.0 4.0 0.00 0.00 0.00 85 1003.5
20260509072016 47 159 1.0 4.0 0.00 0.00 0.00 85 1003.6
20260509071516 47 147 1.0 4.0 0.00 0.00 0.00 85 1003.6
20260509071016 47 154 1.0 4.0 0.00 0.00 0.00 85 1003.6
20260509070517 47 193 0.0 4.0 0.00 0.00 0.00 84 1003.7
20260509070015 47 157 0.0 4.0 0.00 0.00 0.00 83 1003.7
20260509065516 47 143 1.0 5.0 0.00 0.00 0.00 83 1003.6
20260509065016 46 141 2.0 5.0 0.00 0.00 0.00 81 1003.6
20260509064516 46 154 0.0 3.0 0.00 0.00 0.00 79 1003.8
20260509064016 46 157 0.0 4.0 0.00 0.00 0.00 78 1003.9
20260509063536 46 148 0.0 4.0 0.00 0.00 0.00 78 1003.9
20260509063036 46 142 1.0 3.0 0.00 0.00 0.00 76 1003.9
20260509062536 46 140 1.0 5.0 0.00 0.00 0.00 77 1004.0
20260509062016 46 139 2.0 5.0 0.00 0.00 0.00 75 1004.0
20260509061515 46 132 2.0 5.0 0.00 0.00 0.00 74 1004.0
20260509061016 45 127 2.0 5.0 0.00 0.00 0.00 73 1004.0
20260509060515 45 135 2.0 4.0 0.00 0.00 0.00 73 1004.0
20260509060015 45 132 2.0 4.0 0.00 0.00 0.00 72 1004.2
20260509055516 44 149 2.0 4.0 0.00 0.00 0.00 71 1004.2
20260509055035 44 144 1.0 3.0 0.00 0.00 0.00 71 1004.2
20260509054516 44 180 0.0 2.0 0.00 0.00 0.00 71 1004.3
20260509054015 43 178 0.0 5.0 0.00 0.00 0.00 71 1004.4
20260509053516 43 175 2.0 5.0 0.00 0.00 0.00 71 1004.3
20260509053017 43 157 1.0 5.0 0.00 0.00 0.00 71 1004.3
20260509052517 42 144 1.0 4.0 0.00 0.00 0.00 71 1004.2
20260509052016 42 126 2.0 4.0 0.00 0.00 0.00 72 1004.2
20260509051515 42 120 2.0 4.0 0.00 0.00 0.00 75 1004.1
20260509051016 42 121 2.0 3.0 0.00 0.00 0.00 75 1004.2
20260509050537 42 125 2.0 3.0 0.00 0.00 0.00 74 1004.3
20260509050016 42 130 0.0 2.0 0.00 0.00 0.00 72 1004.3
20260509045517 42 0.0 1.0 0.00 0.00 0.00 72 1004.3
20260509045035 42 130 0.0 3.0 0.00 0.00 0.00 71 1004.3
20260509044515 43 132 0.0 4.0 0.00 0.00 0.00 71 1004.3
20260509044015 42 116 2.0 4.0 0.00 0.00 0.00 70 1004.2
20260509043537 42 119 2.0 4.0 0.00 0.00 0.00 70 1004.3
20260509043015 42 130 1.0 3.0 0.00 0.00 0.00 69 1004.4
20260509042515 43 129 1.0 2.0 0.00 0.00 0.00 68 1004.5
20260509042015 43 120 1.0 3.0 0.00 0.00 0.00 68 1004.5
20260509041536 43 117 1.0 3.0 0.00 0.00 0.00 68 1004.5
20260509041015 43 114 1.0 3.0 0.00 0.00 0.00 67 1004.6
20260509040515 43 112 1.0 3.0 0.00 0.00 0.00 67 1004.6
20260509040015 43 113 2.0 3.0 0.00 0.00 0.00 66 1004.6
20260509035536 44 119 2.0 3.0 0.00 0.00 0.00 66 1004.6
20260509035016 44 122 1.0 3.0 0.00 0.00 0.00 66 1004.7
20260509034517 44 122 1.0 3.0 0.00 0.00 0.00 64 1004.7
20260509034016 44 122 1.0 3.0 0.00 0.00 0.00 64 1004.8
20260509033517 44 122 1.0 3.0 0.00 0.00 0.00 64 1004.7
20260509033016 44 122 2.0 3.0 0.00 0.00 0.00 64 1004.8
20260509032516 44 122 2.0 3.0 0.00 0.00 0.00 63 1004.8
20260509032016 45 125 2.0 3.0 0.00 0.00 0.00 63 1004.8
20260509031515 45 125 2.0 3.0 0.00 0.00 0.00 63 1004.9
20260509031017 45 126 1.0 3.0 0.00 0.00 0.00 61 1005.0
20260509030536 46 125 0.0 2.0 0.00 0.00 0.00 58 1005.1
20260509030016 46 126 0.0 1.0 0.00 0.00 0.00 58 1005.2
20260509025516 46 126 0.0 1.0 0.00 0.00 0.00 58 1005.2
20260509025016 46 125 0.0 2.0 0.00 0.00 0.00 59 1005.2
20260509024517 46 125 1.0 2.0 0.00 0.00 0.00 59 1005.2
20260509024016 46 125 1.0 3.0 0.00 0.00 0.00 58 1005.2
20260509023516 47 125 2.0 4.0 0.00 0.00 0.00 57 1005.2
20260509023016 47 127 2.0 4.0 0.00 0.00 0.00 57 1005.3
20260509022516 47 131 2.0 4.0 0.00 0.00 0.00 56 1005.3
20260509022015 48 130 2.0 4.0 0.00 0.00 0.00 55 1005.3
20260509021536 48 131 1.0 3.0 0.00 0.00 0.00 52 1005.4
20260509021016 48 132 2.0 3.0 0.00 0.00 0.00 52 1005.4
20260509020516 49 137 2.0 3.0 0.00 0.00 0.00 53 1005.4
20260509020015 49 138 2.0 3.0 0.00 0.00 0.00 51 1005.3
20260509015517 49 138 1.0 2.0 0.00 0.00 0.00 50 1005.3
20260509015015 50 137 0.0 2.0 0.00 0.00 0.00 49 1005.3
20260509014517 50 138 1.0 3.0 0.00 0.00 0.00 49 1005.3
20260509014015 51 138 1.0 3.0 0.00 0.00 0.00 49 1005.2
20260509013517 51 138 1.0 2.0 0.00 0.00 0.00 47 1005.2
20260509013016 52 138 1.0 3.0 0.00 0.00 0.00 46 1005.1
20260509012516 52 137 2.0 3.0 0.00 0.00 0.00 42 1005.2
20260509012016 53 137 2.0 3.0 0.00 0.00 0.00 44 1005.1
20260509011535 53 237 1.0 3.0 0.00 0.00 0.00 43 1005.1
20260509011015 54 266 1.0 3.0 0.00 0.00 0.00 40 1005.1
20260509010515 55 266 1.0 3.0 0.00 0.00 0.00 39 1005.1
20260509010016 56 266 1.0 2.0 0.00 0.00 0.00 37 1005.2
20260509005516 57 266 1.0 2.0 0.00 0.00 0.00 35 1005.1
20260509005015 57 266 1.0 2.0 0.00 0.00 0.00 33 1005.1
20260509004517 58 266 1.0 2.0 0.00 0.00 0.00 32 1005.1
20260509004017 58 266 0.0 2.0 0.00 0.00 0.00 31 1005.1
20260509003515 59 0.0 2.0 0.00 0.00 0.00 33 1005.1
20260509003015 59 277 0.0 2.0 0.00 0.00 0.00 33 1005.1
20260509002515 60 306 0.0 3.0 0.00 0.00 0.00 30 1005.1
20260509002015 60 304 1.0 6.0 0.00 0.00 0.00 26 1005.2
20260509001515 60 264 2.0 6.0 0.00 0.00 0.00 25 1005.1
20260509001015 60 262 1.0 4.0 0.00 0.00 0.00 25 1005.2
20260509000515 60 266 2.0 6.0 0.00 0.00 0.00 26 1005.2
20260509000015 60 296 3.0 7.0 0.00 0.00 0.00 25 1005.2
20260508235516 60 294 4.0 8.0 0.00 0.00 0.00 24 1005.2
20260508235015 60 300 4.0 8.0 0.00 0.00 0.00 24 1005.3
20260508234515 60 299 4.0 10.0 0.00 0.00 0.00 24 1005.4
20260508234036 60 301 7.0 11.0 0.00 0.00 0.00 24 1005.5
20260508233515 60 309 6.0 11.0 0.00 0.00 0.00 24 1005.5
20260508233036 61 297 6.0 10.0 0.00 0.00 0.00 24 1005.5
20260508232537 61 295 5.0 12.0 0.00 0.00 0.00 24 1005.5
20260508232015 61 303 8.0 12.0 0.00 0.00 0.00 23 1005.4
20260508231535 61 299 7.0 12.0 0.00 0.00 0.00 24 1005.5
20260508231015 61 308 7.0 13.0 0.00 0.00 0.00 24 1005.4
20260508230515 61 299 8.0 13.0 0.00 0.00 0.00 23 1005.4
20260508230015 61 312 8.0 16.0 0.00 0.00 0.00 24 1005.5
20260508225515 61 316 8.0 16.0 0.00 0.00 0.00 22 1005.5
20260508225015 62 299 7.0 11.0 0.00 0.00 0.00 23 1005.4
20260508224515 62 313 7.0 14.0 0.00 0.00 0.00 22 1005.4
20260508224015 61 307 9.0 14.0 0.00 0.00 0.00 23 1005.5
20260508223515 62 287 8.0 14.0 0.00 0.00 0.00 21 1005.5
20260508223015 61 306 7.0 14.0 0.00 0.00 0.00 21 1005.5
20260508222516 62 310 9.0 14.0 0.00 0.00 0.00 22 1005.5
20260508222015 62 298 7.0 16.0 0.00 0.00 0.00 21 1005.6
20260508221515 61 321 10.0 16.0 0.00 0.00 0.00 22 1005.6
20260508221015 62 319 10.0 16.0 0.00 0.00 0.00 21 1005.6
20260508220516 62 303 9.0 14.0 0.00 0.00 0.00 23 1005.7
20260508220015 62 298 8.0 15.0 0.00 0.00 0.00 22 1005.6
20260508215516 62 304 9.0 15.0 0.00 0.00 0.00 21 1005.6
20260508215015 62 303 8.0 15.0 0.00 0.00 0.00 23 1005.7
20260508214515 62 301 10.0 16.0 0.00 0.00 0.00 23 1005.6
20260508214015 62 301 9.0 16.0 0.00 0.00 0.00 22 1005.6
20260508213515 62 324 9.0 14.0 0.00 0.00 0.00 24 1005.6
20260508213016 61 327 10.0 15.0 0.00 0.00 0.00 24 1005.6
20260508212516 61 298 8.0 18.0 0.00 0.00 0.00 21 1005.6
20260508212015 61 304 10.0 18.0 0.00 0.00 0.00 22 1005.8
20260508211515 61 303 11.0 17.0 0.00 0.00 0.00 23 1005.8
20260508211015 62 297 10.0 17.0 0.00 0.00 0.00 23 1005.8
20260508210515 62 263 8.0 16.0 0.00 0.00 0.00 24 1005.8
20260508210015 62 272 11.0 16.0 0.00 0.00 0.00 22 1005.8
20260508205515 62 274 7.0 15.0 0.00 0.00 0.00 23 1005.9
20260508205015 62 263 9.0 15.0 0.00 0.00 0.00 23 1005.9
20260508204516 62 247 10.0 16.0 0.00 0.00 0.00 24 1005.9
20260508204015 62 295 8.0 17.0 0.00 0.00 0.00 23 1006.1
20260508203515 62 288 11.0 17.0 0.00 0.00 0.00 23 1006.2
20260508203015 62 252 10.0 16.0 0.00 0.00 0.00 23 1006.3
20260508202515 61 240 10.0 18.0 0.00 0.00 0.00 23 1006.2
20260508202015 61 274 12.0 18.0 0.00 0.00 0.00 22 1006.4
20260508201515 61 257 9.0 17.0 0.00 0.00 0.00 25 1006.4
20260508201015 61 262 11.0 17.0 0.00 0.00 0.00 21 1006.5
20260508200538 62 270 11.0 17.0 0.00 0.00 0.00 24 1006.6
20260508200037 62 268 11.0 17.0 0.00 0.00 0.00 23 1006.6
20260508195517 62 271 9.0 15.0 0.00 0.00 0.00 25 1006.6
20260508195017 62 245 10.0 18.0 0.00 0.00 0.00 27 1006.7
20260508194517 61 250 10.0 19.0 0.00 0.00 0.00 24 1006.7
20260508194017 62 243 11.0 19.0 0.00 0.00 0.00 25 1006.8
20260508193518 62 230 11.0 17.0 0.00 0.00 0.00 25 1006.8
20260508193018 62 248 9.0 17.0 0.00 0.00 0.00 24 1006.8
20260508192517 62 269 9.0 17.0 0.00 0.00 0.00 25 1006.8
20260508192017 62 242 10.0 17.0 0.00 0.00 0.00 26 1006.8
20260508191518 62 271 9.0 15.0 0.00 0.00 0.00 27 1007.0
20260508191036 62 229 7.0 14.0 0.00 0.00 0.00 27 1007.0
20260508190517 61 269 8.0 16.0 0.00 0.00 0.00 25 1007.1
20260508190017 61 255 8.0 16.0 0.00 0.00 0.00 26 1007.1
20260508185517 62 261 10.0 17.0 0.00 0.00 0.00 25 1007.2
20260508185017 62 258 10.0 17.0 0.00 0.00 0.00 27 1007.2
20260508184518 61 284 9.0 17.0 0.00 0.00 0.00 24 1007.2
20260508184037 61 256 10.0 17.0 0.00 0.00 0.00 28 1007.2
20260508183517 61 285 6.0 19.0 0.00 0.00 0.00 26 1007.3
20260508183017 61 261 11.0 20.0 0.00 0.00 0.00 24 1007.4
20260508182517 61 228 10.0 20.0 0.00 0.00 0.00 27 1007.3
20260508182017 61 244 11.0 21.0 0.00 0.00 0.00 26 1007.4